Location: Mermaid+Beach
(28.0410°S, 153.4380°E)
Time: 23:49:48
(UTC+10:00)

ISS - Visible Passes

Search period start: 23 April 2017 00:00
Search period end: 03 May 2017 00:00
Orbit: 400 x 409 km, 51.6° (Epoch: 23 April)

Date Brightness Start Highest point End Pass type
(mag) Time Alt. Az. Time Alt. Az. Time Alt. Az.
23 Apr -3.7 04:54:14 33° SW 04:55:35 77° SE 04:58:53 10° NE visible
24 Apr -1.2 04:04:53 21° E 04:04:53 21° E 04:06:20 10° ENE visible
24 Apr -1.7 05:37:48 10° W 05:39:32 13° NW 05:41:14 10° NNW visible
24 Apr -1.0 18:58:51 10° N 18:58:55 10° N 18:58:55 10° N visible
25 Apr -2.4 04:48:18 26° NNW 04:48:18 26° NNW 04:50:22 10° NNE visible
25 Apr -1.6 18:08:20 10° NNE 18:09:35 12° NE 18:09:37 12° ENE visible
26 Apr -3.5 18:50:09 10° NW 18:52:57 62° NW 18:52:57 62° NW visible
27 Apr -3.0 17:58:11 10° NNW 18:01:13 35° NE 18:03:26 16° ESE visible
27 Apr -0.4 19:35:46 10° WSW 19:36:08 11° WSW 19:36:08 11° WSW visible
28 Apr -2.0 18:42:24 10° WNW 18:45:20 28° SW 18:46:29 23° S visible
29 Apr -3.5 17:49:41 10° NW 17:52:58 66° SW 17:56:17 10° SE visible
30 Apr -0.9 18:35:56 10° WSW 18:37:21 12° SW 18:38:47 10° S visible
01 May -1.6 17:42:08 10° W 17:44:49 22° SW 17:47:32 10° SSE visible
